CAPE
470 236 121 72 31 24 7 8 1 0 0 0 42 41 0 0 0 0 0 0 0 0 1 2 1 1 4 3 2 4 4 4 4
747 603 220 98 9 4 4 0 0 0 0 0 0 0 0 0 0 0 0 0 1 1 1 1 1 1 1 2 1 3 3 3 2
900 435 230 33 2 0 0 0 0 0 0 0 0 0 0 0 0 0 0 2 0 0 0 0 0 2 1 1 1 0 0 0 2
799 510 155 13 8 1 0 0 0 0 0 0 0 0 0 0 0 0 0 0 0 0 0 0 0 0 0 0 0 0 0 0 0
650 352 261 282 260 166 47 0 0 0 0 0 0 0 0 0 0 0 0 0 0 0 0 0 0 0 0 0 0 0 0 0 0
147 9 145 390 523 393 142 44 28 0 0 0 0 0 0 0 0 0 0 0 0 0 0 0 0 0 0 0 0 0 0 0 0
18 3 258 525 413 331 407 359 72 0 0 0 0 0 0 0 0 0 0 0 0 0 0 0 0 0 0 0 0 0 0 0 0
0 0 44 43 33 21 83 137 6 0 0 0 0 0 0 0 0 0 0 0 0 0 0 0 0 3 0 0 0 0 0 0 0
0 0 0 16 15 3 0 0 0 0 0 0 0 0 0 0 0 0 0 34 20 37 58 128 133 99 78 81 62 30 9 1 18
0 0 0 0 3 0 0 0 0 0 0 0 0 0 0 0 0 0 0 0 83 36 39 42 57 73 84 86 91 86 68 57 7
0 0 0 0 4 0 0 0 0 0 0 0 0 0 0 0 0 0 0 0 4 70 32 33 32 43 42 51 84 76 69 16 0
0 0 0 0 0 0 0 0 0 0 0 0 0 0 0 0 0 0 0 0 0 11 26 25 22 44 35 39 85 82 52 0 0
0 0 0 0 0 0 0 0 0 0 0 0 0 0 0 0 0 0 0 0 0 0 0 28 25 10 5 3 56 78 11 0 0
0 0 0 0 0 0 0 0 0 0 0 0 0 0 0 0 0 0 0 0 0 0 0 0 0 0 0 0 28 68 0 0 0
0 2 4 0 0 0 0 0 0 0 0 0 0 0 0 0 0 0 0 0 0 0 0 0 0 0 0 62 118 9 0 0 0
3 29 0 0 0 0 0 0 0 0 0 0 0 0 0 0 0 0 0 0 0 0 0 0 0 0 0 89 55 8 8 0 1
0 8 15 2 0 0 0 0 0 0 0 0 0 2 2 0 0 0 0 0 0 0 0 0 0 0 0 0 0 3 1 0 0
0 1 14 10 0 0 0 0 0 4 1 6 18 6 5 0 0 0 0 0 0 0 0 0 0 0 0 0 0 0 0 0 3
0 0 11 39 58 44 13 8 10 25 36 8 1 0 0 0 0 0 0 0 0 0 0 0 0 0 0 0 0 0 0 0 1
21 20 64 112 95 100 49 44 23 16 31 2 1 1 1 0 0 0 0 0 0 0 0 0 0 0 0 0 0 0 0 0 4
CIN
-7 -41 -107 -178 -37 -0 -0 -0 -0 -0 -0 -0 -9 -10 -0 -0 -0 -0 -0 -0 -0 -0 -0 -0 -0 -0 -0 -0 -0 -0 -0 -0 -0
-0 -7 -51 -125 -64 -0 -0 -0 -0 -0 -0 -0 -0 -0 -0 -0 -0 -0 -0 -0 -0 -0 -0 -0 -0 -0 -0 -0 -0 -0 -0 -0 -0
-0 -3 -37 -110 -0 -0 -0 -0 -0 -0 -0 -0 -0 -0 -0 -0 -0 -0 -0 -0 -0 -0 -0 -0 -0 -0 -0 -0 -0 -0 -0 -0 -0
-0 -0 -46 -8 -34 -0 -0 -0 -0 -0 -0 -0 -0 -0 -0 -0 -0 -0 -0 -0 -0 -0 -0 -0 -0 -0 -0 -0 -0 -0 -0 -0 -0
-0 -17 -19 -21 -37 -73 -74 -0 -0 -0 -0 -0 -0 -0 -0 -0 -0 -0 -0 -0 -0 -0 -0 -0 -0 -0 -0 -0 -0 -0 -0 -0 -0
-26 -95 -42 -4 -1 -7 -87 -26 -42 -0 -0 -0 -0 -0 -0 -0 -0 -0 -0 -0 -0 -0 -0 -0 -0 -0 -0 -0 -0 -0 -0 -0 -0
-60 -48 -10 -2 -8 -29 -7 -8 -7 -0 -0 -0 -0 -0 -0 -0 -0 -0 -0 -0 -0 -0 -0 -0 -0 -0 -0 -0 -0 -0 -0 -0 -0
-0 -0 -42 -54 -61 -41 -56 -103 -5 -0 -0 -0 -0 -0 -0 -0 -0 -0 -0 -0 -0 -0 -0 -0 -0 -11 -0 -0 -0 -0 -0 -0 -0
-0 -0 -0 -106 -150 -168 -0 -0 -0 -0 -0 -0 -0 -0 -0 -0 -0 -0 -0 -17 -9 -2 -5 -35 -37 -9 -2 -1 -5 -9 -17 -1 -2
-0 -0 -0 -0 -205 -88 -0 -0 -0 -0 -0 -0 -0 -0 -0 -0 -0 -0 -0 -2 -58 -13 -8 -6 -4 -2 -1 -2 -2 -2 -2 -0 -7
-0 -0 -0 -0 -229 -0 -0 -0 -0 -0 -0 -0 -0 -0 -0 -0 -0 -0 -0 -0 -41 -76 -14 -9 -8 -7 -5 -5 -4 -6 -6 -14 -0
-0 -0 -0 -0 -0 -0 -0 -0 -0 -0 -0 -0 -0 -0 -0 -0 -0 -0 -0 -0 -0 -100 -27 -15 -12 -11 -11 -8 -3 -3 -2 -0 -0
-0 -0 -0 -0 -0 -0 -0 -0 -0 -0 -0 -0 -0 -0 -0 -0 -0 -0 -0 -0 -0 -0 -0 -41 -30 -33 -15 -1 -1 -1 -9 -0 -0
-0 -0 -0 -0 -0 -0 -0 -0 -0 -0 -0 -0 -0 -0 -0 -0 -0 -0 -0 -0 -0 -0 -0 -0 -0 -0 -0 -0 -0 -0 -0 -0 -0
-0 -2 -101 -0 -0 -0 -0 -0 -0 -0 -0 -0 -0 -0 -0 -0 -0 -0 -0 -0 -0 -0 -0 -0 -0 -0 -0 -4 -0 -0 -0 -0 -0
-13 -4 -0 -0 -0 -0 -0 -0 -0 -0 -0 -0 -0 -0 -0 -0 -0 -0 -0 -0 -0 -0 -0 -0 -0 -0 -0 -3 -1 -15 -28 -0 -45
-0 -41 -108 -32 -0 -0 -0 -0 -0 -0 -0 -0 -0 -118 -64 -0 -0 -0 -0 -0 -0 -0 -0 -0 -0 -0 -0 -0 -0 -23 -39 -0 -0
-0 -6 -86 -168 -6 -0 -0 -0 -0 -113 -45 -249 -130 -46 -50 -0 -0 -0 -0 -0 -0 -0 -0 -0 -0 -0 -0 -0 -0 -0 -0 -0 -3
-0 -0 -92 -129 -131 -165 -169 -205 -239 -195 -152 -232 -177 -0 -0 -0 -0 -0 -0 -0 -0 -0 -0 -0 -0 -0 -0 -0 -0 -0 -0 -0 -0
-33 -52 -84 -85 -114 -121 -206 -217 -234 -217 -209 -182 -0 -0 -0 -0 -0 -0 -0 -0 -0 -0 -0 -0 -0 -0 -0 -0 -0 -0 -0 -0 -0
Wind_Speed
15 14 14 13 12 12 13 12 11 8 7 8 11 14 12 9 6 5 6 4 10 11 11 11 11 11 12 12 11 12 12 12 12
17 16 16 15 13 12 12 12 11 10 9 9 11 11 10 6 5 4 4 4 10 10 10 10 10 11 11 10 11 11 11 11 11
18 18 17 17 16 14 12 12 11 10 10 10 9 9 8 5 5 4 2 6 9 9 8 8 9 9 9 9 9 9 9 9 10
18 18 17 17 15 14 12 11 11 10 9 8 8 7 8 5 4 4 2 5 8 8 7 7 7 8 8 8 8 8 8 8 9
16 15 16 16 14 13 12 11 10 9 7 8 7 7 7 4 3 2 3 7 7 7 6 6 5 6 6 6 6 5 6 7 7
11 11 13 15 15 14 13 11 9 7 6 6 7 6 3 4 3 2 6 6 6 6 5 5 4 4 4 4 4 4 4 4 5
9 9 13 15 14 12 12 10 8 6 2 1 4 2 3 4 4 3 9 8 7 6 5 4 4 3 3 3 2 2 2 1 3
5 4 7 7 10 4 5 5 3 4 3 3 2 3 3 3 3 4 9 10 8 7 7 6 5 5 5 4 4 3 2 1 1
6 6 5 6 5 6 4 3 4 5 4 4 3 4 3 3 3 4 9 10 9 9 9 9 10 8 8 8 7 6 4 3 3
8 7 6 5 6 6 5 4 4 4 5 5 5 5 5 5 3 3 9 10 10 10 9 8 5 6 7 8 8 9 6 2 2
9 8 8 5 6 5 6 5 4 4 4 5 5 6 4 5 6 4 5 12 12 10 11 9 7 7 6 7 8 6 5 4 4
10 9 8 5 6 6 4 4 3 3 3 6 5 5 6 5 6 5 4 4 9 10 10 10 8 6 5 7 6 8 8 6 4
10 8 8 6 5 5 4 3 3 4 4 4 5 4 4 6 6 5 5 4 3 5 8 6 4 3 5 7 6 9 8 7 4
11 10 9 7 7 5 5 4 4 4 4 5 5 5 5 5 4 6 6 6 5 3 4 4 1 4 5 7 8 11 9 7 3
11 9 9 8 7 6 6 7 5 4 5 4 4 4 4 4 5 6 4 4 5 4 5 3 1 4 4 4 10 13 8 6 4
13 8 8 8 10 10 9 6 7 7 4 2 2 3 4 5 4 4 4 6 5 6 4 3 2 2 7 10 12 11 9 5 4
11 11 10 11 9 10 10 10 3 4 5 4 2 2 3 2 3 2 3 5 4 6 5 5 4 3 3 6 9 7 4 1 5
15 14 11 11 9 8 9 9 8 5 3 5 4 2 5 1 0 3 2 4 2 3 5 5 5 5 4 5 5 4 2 3 7
13 13 12 11 8 7 7 5 5 5 5 0 1 2 2 4 2 1 2 3 4 5 4 5 6 6 4 6 6 4 1 2 4
12 14 11 9 8 7 7 6 5 3 3 4 2 1 1 2 1 2 2 2 3 4 4 4 5 6 3 3 3 3 1 3 3
Wind_Direction
148 138 130 129 125 133 135 135 130 117 99 92 111 115 113 103 104 96 92 90 100 94 89 86 84 80 76 73 71 68 65 63 63
151 140 133 131 139 150 151 146 136 125 107 97 125 116 108 106 97 92 104 114 101 97 95 91 87 82 80 76 72 71 70 67 65
149 144 144 148 155 157 157 150 141 133 119 105 124 119 118 111 110 108 95 110 109 102 98 95 88 81 77 76 75 75 72 70 66
156 150 153 158 159 158 157 155 148 141 126 111 110 136 124 132 145 145 142 140 121 116 109 96 89 85 80 75 71 69 68 64 62
159 156 162 165 163 159 160 160 156 146 141 129 118 143 132 143 162 158 192 156 139 130 122 108 95 89 87 85 83 79 70 68 63
162 164 171 170 167 165 168 168 165 157 157 142 128 127 163 174 187 193 218 178 160 153 145 134 127 118 115 106 100 88 82 71 63
172 176 165 162 163 166 172 176 171 157 165 182 140 175 183 194 193 201 216 197 179 178 176 173 176 178 187 170 142 132 115 106 69
173 182 171 167 153 160 171 162 164 183 192 204 193 198 202 210 209 208 222 211 202 195 201 206 218 220 233 225 219 214 199 261 335
180 187 164 161 159 158 166 177 185 197 215 224 230 211 219 218 216 215 222 226 222 220 223 223 227 232 245 241 230 228 224 243 302
180 184 169 178 168 167 172 184 194 215 225 232 234 244 230 229 219 219 224 226 230 228 235 248 253 261 279 260 242 229 218 242 64
183 186 186 173 179 171 174 182 190 216 224 245 238 243 220 225 222 220 222 224 226 222 228 235 243 256 268 290 229 211 179 146 99
181 188 191 173 174 169 177 196 196 215 224 244 244 239 231 218 225 217 224 225 227 233 233 235 237 252 277 289 221 189 160 144 123
188 186 190 166 174 177 181 173 206 221 212 236 235 233 228 223 226 213 200 207 223 225 244 253 259 264 280 283 263 190 154 148 143
207 194 189 167 188 186 191 194 187 204 221 229 239 232 230 224 221 218 207 199 200 232 192 164 124 268 270 269 255 159 161 155 167
209 206 188 179 190 197 198 202 196 198 200 218 227 236 243 240 222 212 190 184 167 171 152 150 109 239 256 269 155 146 162 175 196
186 208 190 193 200 202 204 197 195 215 187 143 275 272 248 249 222 190 171 163 165 149 178 153 132 69 103 125 140 159 172 191 253
176 199 193 207 199 197 195 199 174 189 178 169 125 222 310 300 244 178 183 176 165 162 186 152 145 127 94 90 99 123 134 290 294
183 200 199 195 195 198 194 199 190 181 196 211 151 148 217 112 269 226 208 188 177 178 172 156 142 127 106 91 102 116 84 305 295
183 195 200 186 193 191 190 174 180 146 186 153 215 13 114 177 233 291 214 175 207 206 197 177 148 147 151 163 154 134 120 315 330
195 202 192 188 188 192 164 161 159 168 151 188 186 242 280 278 162 193 209 277 222 236 192 175 155 156 144 121 147 150 123 9 344